User: anonymous
Location: San Francisco
(37.7750°N, 122.4180°W)
Time: 14:21:36
(UTC-07:00)
Language:

GP-B - Orbit

View from above orbital plane
View from above orbital plane
View from above satellite
View from above satellite

Ground track
Ground track

The orbit data is extracted from the following two-line orbital elements,

1 28230U 04014A   14244.77995741  .00000432  00000-0  58325-4 0  1413
2 28230 089.8886 138.9609 0002783 122.7429 237.4062 14.77605955558503
Epoch (UTC): 01 September 2014 18:43:08
Eccentricity: 0.0002783
inclination: 89.8886°
perigee height: 635 km
apogee height: 639 km
right ascension of ascending node: 138.9609°
argument of perigee: 122.7429°
revolutions per day: 14.77605955
mean anomaly at epoch: 237.4062°
orbit number at epoch: 55850

The dashed part of the orbit path shows where the satellite is in the earth's shadow,  

DLR